Content
SEND FEEDBACK

Daily
Averages
Monthly
Summary
United States of America

DERBY, KANSAS


Home > North America > United States > Kansas
Elevation: 1371 feet     Latitude: 37 37N     Longitude: 097 16W

WEATHER
 
SELECT A DAY
Number of Records: 382,225;   Date Range: 1/3/95 - 7/7/14
 
SHARE

PRINT THIS DATA

[ ← Previous Day ]
WEATHER ALMANAC - FEBRUARY 4, 2013
[ Next Day → ]
[ °C ]   °F
Weather ElementAverageHighLow
Temperature45.3 °F56.3 °F (2:55 pm)33.6 °F (11:55 pm)
Dewpoint27.7 °F29.8 °F (4:55 am)25.3 °F (1:55 pm)
Humidity52.8 %78 % (9:55 pm)31 % (1:55 pm)
Barometer29.91 in29.99 in (8:55 pm)29.81 in (1:55 am)
Wind Speed10.8 mph17.3 mph (1:55 am)
Wind Gust19.6 mph (12:55 pm)
Weather ElementAverage
Visibility10 mi
Wind DirectionESE (114.8 °)

Weather ElementTotal
Precipitation---
Heating Degree Days20.1 (Base 65)
Averaged from 21 records on February 4, 2013
WEATHER CONDITIONS BREAKOUT
WIND DIRECTION BREAKOUT
WEATHER BY HOUR - FEBRUARY 4, 2013
[ °C ]   °F
Local TimeTemperatureDewpointHumidityBarometerVisibilityWind DirectionWind SpeedGust SpeedPrecipitationEventsConditions
1:55 AM48.7 °F28.9 °F46 %29.81 in10.0 miSouth (180°)17.3 mphClear
2:55 AM47.5 °F29.7 °F50 %29.81 in10.0 miSouth (180°)11.5 mphClear
4:55 AM43.9 °F29.8 °F58 %29.83 in10.0 miWest (260°)5.8 mphClear
5:55 AM42.4 °F29.3 °F60 %29.84 in10.0 miWest (280°)4.6 mphClear
6:55 AM42.3 °F29.8 °F61 %29.85 in10.0 miWNW (300°)9.2 mphClear
7:55 AM39.7 °F28.9 °F65 %29.88 in10.0 miNNW (330°)10.4 mphClear
8:55 AM41.7 °F28.2 °F59 %29.90 in10.0 miNorth (360°)11.5 mphClear
9:55 AM46.0 °F28.2 °F50 %29.92 in10.0 miNorth (10°)16.1 mphClear
10:55 AM49.1 °F27.7 °F44 %29.94 in10.0 miNNE (20°)17.3 mphClear
11:55 AM52.7 °F26.1 °F36 %29.94 in10.0 miNNE (30°)15.0 mphClear
12:55 PM55.0 °F25.7 °F32 %29.93 in10.0 miNorth (10°)16.1 mph19.6 mphClear
1:55 PM55.8 °F25.3 °F31 %29.91 in10.0 miNE (40°)12.7 mphClear
2:55 PM56.3 °F26.2 °F32 %29.91 in10.0 miNNE (30°)13.8 mphClear
3:55 PM55.0 °F26.4 °F33 %29.91 in10.0 miNNE (20°)12.7 mphClear
4:55 PM51.8 °F27.3 °F39 %29.92 in10.0 miNNE (30°)10.4 mphClear
5:55 PM46.8 °F27.3 °F47 %29.94 in10.0 miNNE (30°)9.2 mphClear
7:55 PM37.9 °F27.1 °F65 %29.97 in10.0 miNE (40°)9.2 mphClear
8:55 PM37.0 °F28.2 °F70 %29.99 in10.0 miNE (40°)8.1 mphClear
9:55 PM34.2 °F27.9 °F78 %29.99 in10.0 miNE (50°)6.9 mphClear
10:55 PM34.7 °F27.5 °F75 %29.98 in10.0 miENE (60°)4.6 mphClear
11:55 PM33.6 °F27.1 °F77 %29.97 in10.0 miESE (110°)3.5 mphClear
Hourly data recorded from KIAB, located miles away from Derby, Kansas







STORIES FROM OUR PARTNERS